sat.trackr.live / text

‹ back to catalog

YAOGAN-46

NORAD 66313 · 2025-250A

PAYLOAD ACTIVE UNKNOWN

§ Identity

Operator
Country
PRC
Launch date
2025-11-03
Launch site
WSC
Launch vehicle
Mass (kg)
RCS (m²)

External: N2YO · Heavens-Above · Gunter

§ Orbital elements

Epoch: 2026-05-24T19:53:59.791200Z

Period
271.08 min
Inclination
20.0901°
Eccentricity
0.0004308
Mean motion
5.31203760 rev/d
Perigee alt
7,490.7 km
Apogee alt
7,502.7 km
Semi-major
13,874.8 km
B*
0.0000e+0
RAAN
352.1461°
Arg perigee
102.0511°
Mean anomaly
258.0129°
Rev number
1,085

§ Raw data

YAOGAN-461 66313U 25250A   26144.82916425 -.00000039  00000+0  00000+0 0  99982 66313  20.0901 352.1461 0004308 102.0511 258.0129  5.31203760 10858

JSON: /api/v1/satellites/66313 · /tle

For live sub-satellite position, see the globe view (requires WebGL).

§ Visibility from observer

Set your observer location to see the next 7 days of passes ≥ 10°. The values pass through the URL so the page stays shareable.

No JS? Fill the form by hand. The geolocation button needs JavaScript.